Regional Weather Roundup
Issued by NWS Newport/Morehead, NC

Current Version | Previous Version | Text Only | Print | Product List | Glossary On
Versions: 1 2 3 4 5 6 7 8 9 10 11 12 13 14 15 16 17 18 19 20 21 22 23 24 25 26 27 28 29 30 31 32 33 34 35 36 37 38 39 40 41 42 43 44 45 46 47 48 49 50
000
ASUS42 KMHX 162210
RWRMHX
WEATHER ROUNDUP FOR EASTERN NORTH CAROLINA
NATIONAL WEATHER SERVICE NEWPORT/MOREHEAD CITY NC
600 PM EDT WED APR 16 2014

NOTE: "FAIR" INDICATES FEW OR NO CLOUDS BELOW 12,000 FEET
WITH NO SIGNIFICANT WEATHER AND/OR OBSTRUCTIONS TO VISIBILITY

NCZ015>017-031-032-045>047-102-103-162300-
NORTH COAST

CITY           SKY/WX    TMP DP  RH WIND       PRES   REMARKS
EDENTON        SUNNY     50  28  43 NE13      30.40R
ELIZABETH CITY SUNNY     49  30  48 NE15      30.40R
KITTY HAWK     CLEAR     44  28  52 NE12G22   30.39R
MANTEO         SUNNY     44  27  51 NE17G29   30.40R

$$

NCZ045>047-081-094-103-104-162300-
CENTRAL COAST

CITY           SKY/WX    TMP DP  RH WIND       PRES   REMARKS
FRISCO         PTSUNNY   45  34  65 NE15G28   30.37R
SWANQUARTER      N/A     48 N/A N/A N7G21     30.36R

$$

NCZ095-097-098-100-101-162300-
SOUTHERN COAST

CITY           SKY/WX    TMP DP  RH WIND       PRES   REMARKS
BEAUFORT       SUNNY     51  30  44 NE14G21   30.36R
CEDAR ISLAND     N/A     48 N/A N/A NE21G31   30.41R
JACKSONVILLE   SUNNY     54  29  38 N12       30.35R
NEWPORT          N/A     52  36  54 NE9G15      N/A
PINEY ISLAND   CLEAR     51  29  42 N15G26    30.37R
WILMINGTON     SUNNY     55  32  41 E10       30.34R


$$

NCZ011>013-027>030-043-044-078>080-089-090>093-098-162300-
COASTAL PLAIN

CITY           SKY/WX    TMP DP  RH WIND       PRES   REMARKS
AHOSKIE        SUNNY     51  24  35 NE6       30.39R
CLINTON        SUNNY     55  30  39 NE3       30.36S
ELIZABETHTOWN  SUNNY     55  29  36 E5        30.34S
GOLDSBORO      SUNNY     54  27  35 NE9G20    30.35R
GREENVILLE     SUNNY     54  27  35 N8        30.37R
HAVELOCK       MOSUNNY   54  33  45 NE15      30.36R
KENANSVILLE    SUNNY     53  26  35 NE7       30.37R
KINSTON        SUNNY     55  27  33 NE9       30.37R
NEW BERN       SUNNY     53  29  39 E15       30.37R
RICHLANDS      SUNNY     55  28  35 N12       30.35S
ROANOKE RAPIDS NOT AVBL
ROCKY MOUNT      N/A    N/A N/A N/A MISG      30.38R
WASHINGTON     SUNNY     53  19  27 NE12      30.37R
WHITEVILLE     SUNNY     55  29  36 NE7       30.33R

$$

AMZ130-135-150-152-154-156-158-170-250-252-270-ANZ085-086-088-633-658-670-162300-
MARINE OBSERVATIONS

STATION/POSITION TIME  TEMP    WIND        PRES    WAVE   SWELL
                       AIR SEA DIR/SP/G            HT/PER HT/PER
                 (UTC) (F)     (DEG/KT/KT) (MB)    (FT/S) (FT/S)
CHESAPEAKE LIGHT 2100   41      50/ 15/ 17 1029.9
BUOY 44014       2200   44 65   30/ 23/ 29 1028.3   10/ 9   7/ 9
DUCK             2200   43 48   30/ 20/ 24 1028.4
2E DUCK          2200      47                N/A     7/ 8   2/12
OREGON INLET     2200   43 55   20/ 18/ 26 1028.8
BUOY 44095       2200      58                N/A    10/ 8   3/11
HATTERAS CG      2200   45 59   30/ 16/ 27 1028.4
DIAMOND BUOY     NOT AVBL
CAPE LOOKOUT     2200   48      50/ 23/ 26 1028.0
BEAUFORT LAB     2200   50 62   20/ 14/ 18 1027.2
30 SE NEW RIVER  2200   51 65   50/ 21/ 27 1027.4    7/ 7   3/11
5 SE WRIGHTSVILL 2100   52 60   70/ 16/ 19 1027.0
FRYING PAN BUOY  2200   53 64   50/ 21/ 27 1026.1    7/ 6
BUOY 41001       NOT AVBL
BUOY 41002       NOT AVBL
BUOY 41004       NOT AVBL

$$



USA.gov is the U.S. government's official web portal to all federal, state and local government web resources and services.